sat.trackr.live / text

‹ back to catalog

STARLINK-31477

NORAD 59314 · 2024-056U

PAYLOAD ACTIVE UNKNOWN

§ Identity

Operator
Country
US
Launch date
2024-03-24
Launch site
AFETR
Launch vehicle
Mass (kg)
RCS (m²)

Purposes: comms

External: N2YO · Heavens-Above · Gunter

§ Orbital elements

Epoch: 2026-09-20T05:32:14.424864Z

Period
94.27 min
Inclination
43.0028°
Eccentricity
0.0001038
Mean motion
15.27581827 rev/d
Perigee alt
482.3 km
Apogee alt
483.8 km
Semi-major
6,861.2 km
B*
1.6131e-5
RAAN
204.5349°
Arg perigee
272.4305°
Mean anomaly
87.6428°
Rev number
14,099

§ Raw data

STARLINK-314771 59314U 24056U   26263.23072251  .00000182  00000+0  16131-4 0  99962 59314  43.0028 204.5349 0001038 272.4305  87.6428 15.27581827140997

JSON: /api/v1/satellites/59314 · /tle

For live sub-satellite position, see the globe view (requires WebGL).

§ Visibility from observer

Set your observer location to see the next 7 days of passes ≥ 10°. The values pass through the URL so the page stays shareable.

No JS? Fill the form by hand. The geolocation button needs JavaScript.